Total_Precipitation_Accumulation
0.03 0.06 0.13 0.21 0.20 0.14 0.10 0.08 0.10 0.12 0.21 0.35 0.54 0.68 0.75 0.79 0.83 0.70 0.61 0.66 0.70 0.79 0.85 0.91 0.97 0.96 0.97 1.07 1.10 1.22 1.50 1.61 1.72 1.72 1.74 1.85 1.91 1.86 1.90 1.90 1.87 2.04 2.10 2.06
0.04 0.06 0.08 0.12 0.16 0.13 0.10 0.10 0.11 0.14 0.24 0.38 0.58 0.66 0.75 0.73 0.74 0.71 0.73 0.76 0.83 0.88 0.91 0.95 1.00 1.09 1.15 1.16 1.19 1.39 1.81 2.06 2.16 2.19 2.23 2.27 2.30 2.29 2.31 2.26 2.37 2.42 2.30 2.23
0.06 0.08 0.10 0.16 0.15 0.14 0.13 0.13 0.17 0.22 0.32 0.42 0.57 0.74 0.85 0.75 0.63 0.64 0.67 0.72 0.79 0.93 1.04 1.04 1.05 1.11 1.21 1.31 1.38 1.53 1.82 2.01 2.12 2.22 2.32 2.44 2.48 2.52 2.53 2.56 2.56 2.56 2.59 2.51
0.12 0.13 0.20 0.20 0.22 0.22 0.21 0.23 0.26 0.38 0.49 0.54 0.58 0.68 0.72 0.62 0.60 0.64 0.67 0.78 0.89 0.92 1.05 1.13 1.21 1.32 1.52 1.68 1.84 1.91 2.04 2.23 2.34 2.30 2.31 2.39 2.42 2.37 2.39 2.51 2.54 2.49 2.40 2.29
0.24 0.23 0.23 0.27 0.32 0.31 0.32 0.44 0.51 0.63 0.76 0.81 0.79 0.77 0.86 0.78 0.72 0.73 0.82 0.92 1.10 1.24 1.27 1.35 1.46 1.60 1.75 1.99 2.11 2.14 2.15 2.33 2.46 2.55 2.62 2.52 2.41 2.43 2.48 2.52 2.38 2.28 2.18 2.16
0.36 0.40 0.43 0.39 0.44 0.42 0.46 0.83 0.78 0.84 0.95 1.02 1.08 1.31 1.30 1.03 1.00 0.89 0.87 0.99 1.10 1.30 1.44 1.49 1.64 1.75 1.81 1.91 2.03 2.15 2.14 2.21 2.37 2.47 2.64 2.74 2.68 2.69 2.65 2.56 2.44 2.37 2.29 2.30
0.47 0.53 0.53 0.48 0.46 0.51 0.94 1.32 1.12 1.07 1.12 1.20 1.31 1.34 1.24 1.08 1.12 1.15 1.01 0.99 1.03 1.11 1.27 1.38 1.48 1.57 1.74 1.84 1.84 1.94 1.98 1.97 2.13 2.35 2.52 2.64 2.77 2.78 2.79 2.71 2.58 2.39 2.24 2.19
0.65 0.84 0.95 0.65 0.56 0.86 1.17 1.17 1.30 1.22 1.22 1.31 1.36 1.38 1.35 1.30 1.24 1.19 1.10 1.02 1.05 1.12 1.20 1.30 1.44 1.67 1.86 1.91 1.88 1.88 1.93 2.04 2.17 2.37 2.46 2.47 2.53 2.60 2.70 2.67 2.61 2.52 2.29 2.10
1.02 1.17 1.07 0.77 0.81 0.91 0.95 1.12 1.22 1.25 1.27 1.31 1.34 1.32 1.24 1.16 1.15 1.20 1.12 1.10 1.07 1.12 1.27 1.46 1.64 1.84 2.05 2.07 2.06 2.07 2.11 2.18 2.26 2.36 2.43 2.48 2.47 2.46 2.46 2.42 2.31 2.22 2.10 2.01
1.34 1.49 1.27 1.06 0.99 1.03 1.11 1.23 1.33 1.44 1.51 1.42 1.30 1.20 1.21 1.21 1.17 1.23 1.22 1.15 1.13 1.14 1.24 1.45 1.56 1.66 1.85 1.97 2.01 2.14 2.11 2.03 2.00 2.02 2.08 2.16 2.21 2.24 2.24 2.19 2.12 2.03 1.95 1.92
1.70 1.92 1.78 1.56 1.33 1.26 1.33 1.59 1.76 1.74 1.66 1.57 1.52 1.46 1.49 1.46 1.34 1.25 1.22 1.23 1.23 1.26 1.32 1.38 1.43 1.48 1.58 1.70 1.84 2.04 2.14 2.09 2.08 2.07 2.06 2.08 2.15 2.21 2.07 2.01 2.03 1.92 1.80 1.86
2.01 1.97 2.06 1.93 1.57 1.51 1.53 1.69 1.82 1.76 1.76 1.80 1.79 1.69 1.52 1.44 1.37 1.34 1.30 1.29 1.34 1.38 1.40 1.39 1.40 1.49 1.61 1.75 1.95 2.18 2.19 2.08 2.09 2.14 2.18 2.20 2.20 2.24 2.28 2.07 2.03 1.90 1.80 1.75
1.71 1.79 1.86 1.78 1.68 1.72 1.74 1.76 1.83 1.81 1.75 1.80 1.82 1.71 1.51 1.40 1.36 1.35 1.37 1.36 1.45 1.49 1.43 1.38 1.37 1.48 1.62 1.80 2.02 2.20 2.22 2.21 2.22 2.21 2.24 2.24 2.15 2.11 2.13 2.04 1.89 1.81 1.70 1.58
1.74 1.81 1.95 1.95 1.92 1.87 2.03 2.08 2.06 1.99 1.90 1.82 1.77 1.66 1.55 1.58 1.56 1.47 1.45 1.50 1.49 1.44 1.37 1.37 1.40 1.39 1.47 1.64 1.90 2.13 2.20 2.26 2.29 2.26 2.23 2.17 2.06 2.00 1.94 1.89 1.77 1.63 1.53 1.45
1.74 1.72 1.83 1.81 1.89 1.92 2.07 2.17 2.16 2.14 2.04 1.91 1.75 1.62 1.44 1.46 1.66 1.69 1.68 1.72 1.61 1.47 1.41 1.35 1.32 1.28 1.32 1.43 1.60 1.85 1.99 1.94 1.89 1.90 1.90 1.87 1.79 1.74 1.69 1.59 1.58 1.59 1.45 1.27
1.57 1.69 1.73 1.79 1.80 1.74 1.78 1.85 1.92 1.94 1.92 1.82 1.69 1.58 1.41 1.36 1.45 1.55 1.67 1.70 1.71 1.62 1.47 1.36 1.39 1.38 1.29 1.37 1.48 1.54 1.57 1.67 1.58 1.49 1.49 1.50 1.49 1.49 1.45 1.43 1.47 1.55 1.47 1.25
1.60 1.73 1.74 1.77 1.78 1.71 1.61 1.64 1.71 1.74 1.77 1.75 1.64 1.47 1.31 1.32 1.45 1.54 1.58 1.52 1.44 1.40 1.33 1.26 1.28 1.29 1.26 1.36 1.40 1.34 1.25 1.21 1.24 1.16 1.20 1.30 1.35 1.34 1.32 1.35 1.39 1.44 1.36 1.20
1.41 1.51 1.55 1.57 1.49 1.53 1.54 1.60 1.63 1.55 1.59 1.57 1.45 1.34 1.29 1.40 1.57 1.62 1.49 1.32 1.26 1.26 1.24 1.14 1.04 0.98 1.02 1.08 1.07 1.02 0.95 0.92 0.90 0.88 0.97 1.07 1.07 1.10 1.17 1.21 1.24 1.26 1.17 1.04
1.29 1.26 1.24 1.23 1.14 1.23 1.35 1.40 1.47 1.46 1.47 1.41 1.31 1.33 1.36 1.44 1.50 1.47 1.29 1.21 1.19 1.16 1.10 1.00 0.98 0.82 0.80 0.81 0.85 0.84 0.85 0.87 0.86 0.85 0.91 0.91 0.91 0.97 1.12 1.20 1.20 1.20 1.12 1.05
1.12 1.02 0.99 0.99 0.96 1.01 1.14 1.18 1.14 1.20 1.24 1.24 1.33 1.39 1.33 1.32 1.25 1.21 1.16 1.15 1.09 0.95 0.86 0.82 0.79 0.82 0.82 0.80 0.82 0.81 0.84 0.86 0.88 0.83 0.81 0.83 0.88 0.94 0.99 1.02 1.05 1.07 1.06 1.02
0.99 0.91 0.89 0.94 0.95 0.92 0.97 0.98 0.95 0.97 1.05 1.10 1.20 1.27 1.22 1.17 1.09 1.11 1.21 1.19 1.02 0.84 0.76 0.79 0.72 0.71 0.71 0.76 0.74 0.72 0.77 0.82 0.85 0.91 0.91 0.91 0.92 0.93 0.94 0.92 0.92 0.92 0.96 1.01
1.12 0.99 0.92 0.91 0.95 0.95 0.93 0.89 0.83 0.78 0.82 0.89 0.89 0.96 1.08 1.15 1.09 1.09 1.13 1.16 1.04 1.01 0.81 0.71 0.64 0.63 0.65 0.67 0.68 0.76 0.78 0.82 0.89 0.97 0.98 0.97 0.99 1.00 0.98 0.97 0.97 0.94 0.97 1.01
1.17 1.11 1.05 1.02 1.05 1.09 0.98 0.90 0.82 0.78 0.78 0.81 0.81 0.90 1.00 1.10 1.11 1.12 1.08 0.98 0.90 0.99 0.89 0.79 0.78 0.76 0.73 0.69 0.78 0.89 0.89 0.89 0.90 0.93 0.96 0.98 1.01 1.02 1.03 1.02 1.07 1.05 1.05 1.08
1.25 1.15 1.09 1.03 0.98 1.02 1.03 0.96 0.87 0.81 0.79 0.79 0.80 0.86 0.99 1.06 1.06 0.99 0.97 0.95 0.88 0.88 0.86 0.90 0.92 0.90 0.86 0.79 0.87 0.92 0.94 0.97 0.99 0.96 0.91 0.92 0.95 0.95 1.00 1.03 1.05 1.06 1.07 1.10
1.36 1.22 1.10 1.01 0.98 0.96 0.97 0.95 0.88 0.79 0.74 0.78 0.74 0.76 0.84 0.95 1.03 0.98 0.91 0.84 0.81 0.77 0.81 0.86 0.88 0.95 0.92 0.92 0.92 0.91 0.92 1.00 1.06 1.02 0.98 0.99 1.01 1.02 1.03 1.03 0.99 0.99 1.01 1.07
1.42 1.31 1.18 1.06 0.95 0.89 0.90 0.92 0.92 0.88 0.82 0.82 0.79 0.81 0.86 0.86 0.87 0.92 0.97 0.92 0.84 0.80 0.82 0.84 0.83 0.88 0.88 0.93 1.00 1.02 1.00 1.03 1.04 1.02 1.03 1.06 1.11 1.12 1.04 0.95 0.90 0.89 0.89 0.90
1.31 1.24 1.15 1.06 0.94 0.85 0.84 0.88 0.92 0.91 0.89 0.92 0.90 0.90 0.99 0.98 0.95 0.95 0.91 0.86 0.80 0.78 0.80 0.79 0.78 0.78 0.76 0.76 0.78 0.82 0.84 0.88 0.92 0.97 1.02 1.05 1.05 1.03 0.96 0.89 0.86 0.84 0.83 0.81